Theta_e
347 347 348 348 348 348 348 348 350 351 353 354 352 352 352 352 354 354 353 351 353 355 354 352 351 348 347 348 349 350 351 351 351 352 352 352 352 358 361 360 360 359 359 359 359 359 359 359 358 357 357 357 357 355 355 356 355 356 356 356 356 356 356 357 357 357 357 357 357 358 358 358 357 357 357 357 357 356 356 356 356 356 355 354 354
348 347 347 348 348 348 348 348 350 352 353 352 355 352 352 354 354 354 354 353 355 354 359 354 349 348 347 348 349 351 351 351 351 351 352 353 353 359 362 361 360 360 360 360 359 359 360 360 359 358 358 357 357 357 357 356 357 357 357 357 357 357 357 358 357 357 357 358 358 358 358 358 357 357 357 357 357 357 356 356 356 356 355 354 354
348 347 348 347 347 347 347 350 351 353 353 353 355 355 353 352 353 353 351 352 353 355 357 352 347 347 349 349 350 350 351 351 351 352 353 352 353 354 361 362 361 361 360 360 360 360 360 360 360 360 358 358 358 358 358 358 358 358 359 359 358 359 358 358 358 358 358 358 358 358 358 358 358 357 357 357 358 356 356 356 356 356 355 355 354
348 347 346 346 347 347 348 349 351 352 354 354 354 356 354 354 357 357 356 354 356 356 355 353 347 346 347 349 350 350 350 350 351 352 353 352 352 354 355 359 362 362 361 360 360 360 360 360 360 359 359 359 358 358 358 358 358 358 358 359 359 359 359 359 358 358 358 358 358 358 358 358 358 357 357 357 357 356 356 356 356 356 355 355 355
349 350 350 346 349 347 348 354 353 353 355 356 357 355 355 356 354 359 356 356 355 355 357 354 347 345 346 347 349 349 349 349 350 351 352 352 352 353 354 357 357 362 362 361 362 362 361 361 361 360 360 360 359 360 359 359 359 359 359 359 359 360 359 359 358 358 359 359 359 359 358 358 357 357 357 357 357 357 357 356 356 356 356 355 354
351 350 349 348 349 347 348 352 352 354 357 357 354 354 354 354 356 352 360 356 352 352 352 348 345 344 344 345 346 348 348 349 349 350 351 352 353 353 354 354 355 355 358 362 362 363 363 363 362 362 361 361 361 360 361 361 361 360 360 360 360 360 359 360 360 360 360 359 359 359 359 359 359 358 357 357 357 356 357 357 357 356 356 355 354
354 350 349 348 349 348 350 352 353 356 358 357 355 354 354 354 357 352 353 350 351 353 355 350 343 342 341 343 343 345 347 347 349 350 350 351 352 353 354 354 354 354 356 355 364 363 363 364 363 363 362 362 362 362 363 363 362 362 361 361 361 361 361 361 361 361 361 361 361 361 361 361 360 360 360 359 359 359 359 359 359 358 358 357 357
356 352 349 347 350 351 351 354 356 358 358 359 356 353 353 354 355 352 346 349 353 348 348 349 346 343 345 346 344 350 343 343 347 349 350 350 351 352 352 353 354 354 358 355 355 359 363 364 364 364 363 363 363 364 364 364 364 363 363 363 363 363 362 362 362 362 362 362 362 362 362 362 361 362 362 362 362 361 361 361 361 360 360 360 360
360 357 354 351 353 354 356 357 361 359 358 357 355 356 354 356 350 356 350 347 350 351 349 349 346 346 347 345 348 356 343 341 346 347 351 349 350 351 351 351 354 361 357 355 354 354 359 363 365 365 365 364 364 364 364 365 365 364 364 364 364 364 363 363 363 363 363 363 362 363 363 363 363 363 363 363 363 363 363 363 363 362 361 361 361
358 357 354 358 356 356 356 358 360 358 356 354 354 355 354 352 349 352 354 350 347 348 348 347 350 348 347 347 348 353 348 343 347 356 348 349 349 350 351 351 353 354 356 355 353 352 353 357 363 366 366 366 365 365 365 365 365 365 365 365 365 364 364 365 364 364 364 364 364 364 364 364 364 363 363 363 363 363 364 364 364 363 362 362 362
358 360 358 359 355 355 356 359 360 357 356 354 352 355 355 354 352 351 357 353 350 351 351 348 351 348 346 346 347 350 350 350 355 351 346 349 350 353 353 351 352 354 355 354 353 352 351 351 351 356 360 366 367 367 367 366 366 366 366 366 366 365 365 365 365 365 365 365 365 365 365 365 365 365 364 364 364 364 364 364 364 364 363 362 362
357 358 358 357 355 354 356 358 358 355 352 352 351 350 351 353 353 352 353 357 362 358 352 350 352 344 350 346 348 349 349 352 352 350 346 347 349 352 350 351 352 353 355 356 354 353 353 352 355 352 354 358 363 366 368 368 367 368 368 367 367 367 367 367 367 366 366 366 366 366 366 366 366 365 365 365 365 364 364 364 363 363 363 363 363
359 358 357 361 355 354 355 356 357 356 352 352 350 352 355 355 355 357 356 350 350 353 351 352 343 340 342 345 345 347 353 357 348 345 347 347 346 350 348 349 350 351 354 356 355 355 355 354 352 351 350 350 353 360 364 367 368 367 367 369 369 368 367 368 368 368 368 368 368 367 366 365 366 366 366 365 365 365 364 363 363 363 363 363 362
360 359 359 357 354 353 353 355 356 355 354 355 352 362 359 358 359 353 354 352 346 353 353 346 341 336 337 336 339 341 347 352 348 345 346 346 346 346 347 347 347 348 349 353 355 355 356 355 354 351 349 348 349 350 352 356 361 365 366 368 371 370 369 369 369 368 369 369 369 367 366 365 365 364 364 364 364 364 364 363 363 362 362 362 362
361 362 358 356 355 354 353 354 354 358 355 352 353 354 356 357 356 351 348 351 354 357 350 346 339 344 342 335 330 333 339 340 344 345 345 345 343 342 345 346 347 347 347 348 351 354 356 356 354 352 350 349 350 351 353 358 356 361 362 363 365 369 371 371 370 370 370 369 368 366 365 365 364 364 364 364 364 364 363 363 363 362 361 362 360
362 362 359 357 355 355 355 354 354 358 354 353 351 353 354 356 355 357 351 345 346 347 356 349 344 341 333 332 332 332 325 329 336 340 344 344 342 340 344 344 345 346 344 344 348 352 354 356 355 354 354 353 353 354 355 355 358 363 366 367 366 364 366 368 370 370 368 367 367 365 365 364 364 364 365 364 364 363 363 362 361 361 360 358 355
362 362 361 358 357 357 356 357 356 357 356 355 353 356 355 356 353 355 351 347 344 342 346 351 348 346 344 335 328 327 327 328 333 334 341 339 340 339 343 343 342 343 342 339 343 350 353 353 353 355 355 355 355 356 357 357 358 364 366 371 371 369 368 367 368 369 366 365 364 365 365 365 365 364 364 364 363 362 362 360 359 358 357 353 351
361 361 361 360 358 358 358 358 357 357 360 357 356 355 357 357 355 352 352 353 349 341 340 351 349 355 346 339 337 333 329 332 329 324 334 346 339 337 337 341 341 342 342 338 339 343 352 349 348 350 352 353 354 353 352 354 362 360 362 365 375 375 371 365 367 368 364 363 363 364 365 365 364 364 363 363 364 361 361 359 357 356 354 352 350
361 359 360 361 359 358 358 359 358 357 362 358 355 357 357 358 358 355 354 357 354 347 344 342 340 345 351 350 350 349 339 336 328 334 325 329 336 335 333 338 338 339 340 340 341 342 344 348 347 347 347 349 350 350 352 358 371 369 375 374 371 373 371 365 366 364 362 363 365 364 364 364 364 363 362 362 362 360 359 356 355 354 353 351 350
360 360 360 362 360 358 359 359 359 360 363 358 357 357 358 358 359 358 358 360 349 346 347 346 341 343 352 350 350 348 342 341 337 332 328 326 327 333 334 337 338 337 338 339 340 339 342 345 347 346 346 347 350 350 355 358 359 360 363 364 368 372 368 364 362 362 363 365 364 363 364 364 363 363 362 361 359 358 356 355 353 352 349 349 346
360 361 361 362 364 359 359 359 360 359 366 361 359 360 357 356 354 354 351 352 356 354 351 348 346 345 343 340 342 345 342 342 342 342 336 327 328 330 328 330 334 333 334 338 339 337 343 344 346 348 350 352 351 356 360 356 355 352 361 365 368 369 364 361 360 361 363 362 363 364 364 363 363 363 361 359 357 356 354 353 352 351 347 346 345
358 360 360 361 362 361 361 360 358 360 364 361 360 357 356 356 356 356 354 350 355 353 355 350 355 351 346 346 339 339 337 338 339 334 335 332 331 332 333 330 326 328 334 334 336 335 339 343 346 349 347 348 352 357 360 358 355 354 357 364 368 369 364 362 360 362 360 361 362 365 363 363 362 360 358 357 356 354 352 351 349 346 345 346 345
358 359 360 361 361 363 363 361 358 361 363 358 357 358 358 359 359 357 356 355 351 352 355 354 352 350 347 345 342 342 339 337 336 336 335 333 329 329 334 336 326 328 332 336 338 335 337 339 342 344 346 350 355 357 359 357 360 360 360 361 363 365 363 364 361 360 355 357 361 363 363 362 360 358 357 355 354 351 350 348 345 345 345 345 345
356 357 359 362 361 362 364 362 360 358 359 358 356 357 358 359 356 355 355 355 353 355 354 352 352 349 347 346 344 347 345 342 341 340 335 334 332 329 332 335 333 330 335 332 336 335 335 336 341 343 346 352 355 357 356 357 359 363 360 361 360 363 364 365 364 358 356 355 354 358 360 360 357 355 354 353 351 348 347 344 343 344 345 344 344
355 357 358 360 360 359 359 358 357 360 360 357 358 361 358 357 355 355 355 354 354 353 352 351 352 350 349 348 348 348 345 342 342 338 339 341 333 331 335 340 335 336 336 330 328 335 341 338 341 345 348 353 356 361 358 356 355 363 362 360 359 361 362 364 363 357 355 355 357 359 359 357 354 353 352 351 350 348 346 342 342 343 342 343 343
354 355 358 360 360 360 361 360 358 357 359 359 360 361 362 357 356 354 355 355 354 355 353 353 352 353 352 349 348 350 346 347 346 342 338 339 335 333 335 334 340 341 339 335 333 339 340 346 349 351 354 355 357 358 359 357 353 361 362 357 354 355 361 361 363 359 357 354 356 359 359 356 354 353 351 350 350 348 345 341 341 342 341 342 341
355 356 359 358 360 359 359 360 359 358 359 361 365 362 364 360 359 356 355 356 354 355 354 354 354 351 351 349 350 351 347 347 348 347 347 341 341 337 335 332 330 334 340 337 338 334 333 340 351 354 350 356 358 359 358 358 357 359 362 356 353 355 357 359 360 359 358 356 356 356 356 356 354 353 351 350 349 347 344 341 341 341 340 340 339
355 357 357 357 359 359 361 360 359 359 362 363 362 362 361 359 360 359 356 363 357 356 356 354 353 352 352 352 350 348 350 351 351 349 351 351 349 346 337 332 328 328 333 332 335 338 343 341 347 352 353 355 356 361 366 360 356 359 365 356 354 354 355 356 357 356 355 354 356 356 356 356 354 352 351 350 347 345 342 341 339 339 338 338 338
357 359 357 357 358 359 360 359 360 361 362 363 363 362 360 360 360 358 355 358 358 355 356 356 355 357 356 353 349 347 348 352 348 348 353 353 350 347 344 339 335 333 333 329 329 336 340 346 346 346 357 360 358 359 360 358 356 357 360 359 356 354 352 350 353 352 352 351 353 354 354 354 352 351 350 348 346 343 340 338 338 339 336 336 336
359 360 358 357 357 364 359 360 360 362 362 362 362 362 361 358 359 358 360 359 358 357 359 357 357 356 359 357 354 351 349 348 347 346 352 351 350 350 349 348 342 335 334 331 331 336 340 345 351 348 351 353 361 361 359 359 358 355 359 361 358 356 349 348 350 350 350 350 350 350 353 353 352 350 347 343 342 340 338 336 337 337 335 334 335
357 357 357 356 357 360 357 359 361 362 361 361 362 360 361 359 358 359 359 358 357 356 358 358 358 357 356 354 354 353 349 349 353 353 352 355 351 351 353 351 349 343 342 333 330 335 345 343 345 350 350 350 355 356 358 360 361 355 355 361 360 356 352 350 349 349 348 347 346 345 347 347 345 343 339 338 339 337 337 336 335 336 334 332 332
355 352 355 355 357 359 357 357 360 361 360 360 361 360 361 361 360 360 360 358 358 358 359 362 362 359 355 353 354 353 353 352 350 352 350 353 354 350 348 349 350 347 346 336 334 337 345 347 346 350 353 348 351 353 353 357 363 357 356 362 362 359 356 353 351 348 346 344 343 342 341 340 338 337 338 339 340 340 338 334 333 333 332 329 329
354 351 351 354 357 358 357 356 357 358 358 359 359 359 359 360 359 359 359 359 358 358 359 359 361 359 357 355 354 353 354 351 349 351 351 350 351 350 350 346 345 346 345 340 337 339 341 346 350 350 352 355 351 351 351 352 354 357 357 359 361 359 357 353 353 349 346 342 339 338 338 336 335 336 338 340 340 340 338 336 332 332 330 327 325
350 350 351 351 356 356 356 355 355 356 357 357 358 358 358 358 358 360 359 357 357 357 355 355 357 358 356 354 355 355 355 352 350 350 351 350 348 349 348 350 347 348 346 342 338 337 339 340 343 348 351 356 350 352 354 354 354 358 358 357 364 359 358 355 353 353 347 343 337 335 335 334 334 335 337 339 340 340 338 335 333 330 328 325 322
351 350 351 351 352 353 354 354 352 353 354 354 354 356 356 357 357 357 358 357 357 356 356 356 356 356 354 353 354 355 359 355 353 351 351 350 350 347 346 347 347 346 347 346 342 339 340 341 342 346 347 350 351 351 353 356 357 357 354 355 358 362 361 358 355 354 347 342 338 335 334 333 333 334 335 337 338 337 336 333 329 327 325 323 322
350 349 351 351 351 351 351 351 351 350 351 352 352 353 355 355 356 355 355 353 355 356 356 356 356 356 355 353 353 354 355 353 352 352 352 350 349 348 348 348 348 347 347 347 347 343 341 341 342 346 348 349 350 352 357 358 357 356 354 355 355 357 360 362 359 355 349 342 339 336 334 332 332 332 332 333 333 331 329 328 325 324 323 323 322
349 348 349 350 351 351 351 351 350 350 350 351 351 351 353 355 355 355 354 353 352 352 354 356 362 356 355 354 353 352 352 352 352 352 353 351 351 349 347 347 347 349 349 348 348 346 343 342 343 346 349 350 352 354 356 355 356 355 354 353 355 357 356 361 363 360 349 340 340 337 334 332 332 331 331 331 331 329 328 326 324 323 323 323 322
347 348 347 347 349 350 350 350 350 350 350 351 351 351 351 353 354 354 354 353 353 352 352 352 353 355 355 353 353 352 351 351 351 351 351 352 352 351 349 348 347 347 347 347 347 346 345 344 343 344 345 350 350 352 355 354 353 351 352 354 354 354 353 357 361 360 352 345 342 340 335 333 332 330 330 331 330 328 327 325 324 323 322 320 318
346 346 347 346 347 348 350 350 350 350 349 350 351 351 350 351 353 353 353 352 352 351 352 352 352 351 352 353 353 352 351 351 350 350 350 351 352 350 350 349 349 345 346 346 346 344 345 345 344 346 347 349 351 349 350 352 352 353 352 352 351 351 351 353 356 354 349 346 343 341 339 337 335 332 326 326 327 326 325 324 323 322 321 318 316
346 345 345 346 346 346 347 349 350 350 349 348 349 350 349 348 349 351 352 352 352 351 350 350 352 351 351 351 352 352 352 351 351 350 350 349 350 349 350 349 348 347 346 345 344 345 345 344 342 343 343 344 345 350 353 351 351 348 349 352 348 347 349 349 355 353 348 345 343 342 339 336 334 332 327 327 327 327 326 325 325 326 325 321 318
348 346 345 345 346 346 345 346 348 349 349 349 349 349 349 347 347 346 349 351 351 350 350 349 349 349 350 350 351 351 353 363 359 358 356 357 350 348 349 349 348 347 346 345 344 342 342 344 345 346 344 346 347 347 348 346 347 349 346 346 345 348 349 350 352 353 350 344 345 343 339 337 335 333 332 330 329 329 327 328 325 329 327 322 320
349 349 347 344 343 346 346 346 346 348 348 350 352 346 348 350 347 347 347 347 348 348 349 348 348 347 347 347 350 360 362 360 355 353 349 355 362 355 349 348 348 347 346 345 344 343 343 342 342 342 342 343 345 346 346 346 347 344 344 344 343 345 345 347 349 349 353 346 343 341 342 340 336 334 331 331 332 334 329 325 323 323 325 324 322
348 348 347 345 341 342 345 346 346 347 348 349 344 336 337 342 350 348 347 346 346 346 346 346 346 347 347 347 346 354 362 366 358 351 347 345 349 356 360 362 361 349 346 345 345 344 343 343 343 342 341 341 343 345 345 346 346 346 346 344 345 344 342 340 338 345 350 347 343 339 343 339 336 334 334 332 333 330 329 327 328 327 323 323 323
349 352 347 345 345 343 342 343 346 348 348 347 335 333 334 334 343 351 349 348 347 346 345 345 345 345 345 346 346 347 347 348 348 349 351 350 344 345 346 351 353 359 358 351 347 345 345 345 344 345 344 343 345 345 346 345 346 345 344 343 343 343 343 340 336 338 341 353 347 343 345 339 337 337 335 337 336 333 332 329 327 327 324 323 323
351 348 348 347 345 346 344 341 342 345 348 342 333 331 331 331 332 343 349 349 348 347 346 345 345 344 344 344 345 345 346 356 356 349 345 345 345 342 341 342 346 345 341 341 347 352 348 346 346 345 346 347 346 347 348 346 345 344 342 341 340 340 340 337 338 337 342 351 346 340 342 342 336 341 336 340 341 338 336 331 329 327 325 323 323
350 349 349 348 347 346 346 345 343 342 343 343 332 328 328 328 330 333 347 348 348 348 347 346 346 344 344 343 343 343 344 345 346 345 343 342 342 343 344 344 344 349 348 342 342 343 349 350 348 347 348 349 348 349 352 349 346 346 344 344 342 340 340 341 343 342 343 353 347 341 342 341 341 341 341 346 348 344 340 334 328 326 325 323 322
350 349 348 348 348 350 349 348 348 348 346 338 329 325 324 325 327 331 343 347 348 347 348 348 346 345 344 344 343 342 343 343 343 345 342 341 339 339 339 340 342 343 344 345 346 348 350 351 352 352 352 351 351 351 351 351 351 351 350 348 346 345 344 341 343 344 347 352 350 347 342 345 342 343 348 350 351 351 350 335 327 325 324 322 322
350 350 349 349 349 348 349 349 348 347 351 336 330 324 321 322 325 334 338 342 344 346 347 347 347 346 345 343 342 341 341 341 347 342 348 346 340 338 337 338 340 342 344 348 338 341 350 350 350 352 354 355 346 353 355 355 353 353 354 351 348 345 345 343 344 344 345 346 354 349 342 343 346 344 344 344 339 342 342 333 327 324 323 321 322
349 349 349 349 350 349 349 350 349 349 350 340 329 323 318 318 323 333 335 338 340 342 344 346 347 346 345 344 342 341 340 340 341 331 331 344 342 340 339 338 339 341 342 346 338 331 331 330 331 333 333 333 333 331 329 331 345 347 346 343 344 346 342 341 341 340 341 344 347 353 347 342 347 344 344 337 332 336 336 333 324 322 321 320 320
350 352 352 351 351 351 351 350 351 350 351 348 326 323 321 316 327 332 333 335 337 339 341 343 345 345 346 354 356 344 341 341 335 329 329 336 337 338 339 339 339 340 342 346 350 349 331 326 326 327 328 329 329 329 330 330 329 335 339 339 343 342 340 340 339 340 342 341 347 351 341 344 348 341 341 333 330 329 328 327 322 322 321 318 317
348 351 354 353 352 352 353 352 356 354 352 349 328 318 318 316 326 336 335 334 335 335 337 339 341 344 345 352 356 352 348 343 331 329 328 336 339 339 340 340 340 340 343 346 347 349 349 348 348 345 342 339 341 340 342 335 334 344 340 342 343 342 340 339 339 337 336 338 342 350 345 338 340 336 337 332 331 332 328 325 323 320 320 322 321
Wind_Speed
2 2 2 2 1 2 1 0 0 0 1 0 1 2 2 2 3 2 2 2 2 3 3 3 3 3 5 4 3 4 4 4 4 4 3 3 2 4 7 7 6 6 6 6 6 6 6 6 6 6 6 6 6 5 5 5 5 5 5 6 6 6 6 7 7 8 8 8 8 8 8 8 7 7 7 7 7 7 7 7 7 7 6 6 6
3 2 2 1 1 1 1 1 0 0 1 1 1 2 2 2 2 2 2 2 2 2 2 3 3 4 5 5 5 5 5 5 5 5 4 4 3 3 9 8 7 6 7 7 7 7 7 7 7 7 7 7 6 6 7 6 6 6 6 7 7 7 8 8 8 9 8 9 9 9 9 8 8 8 8 8 8 8 8 8 8 8 8 7 8
2 1 1 1 1 1 2 2 2 1 2 1 1 3 3 3 2 1 1 2 4 4 2 1 2 5 5 6 6 5 5 4 4 4 4 4 4 3 4 9 8 8 8 8 8 8 8 8 9 9 8 8 8 8 9 8 8 8 8 8 8 9 9 9 9 9 9 10 10 10 10 9 9 9 9 9 9 9 9 9 8 8 8 9 9
3 2 1 1 1 1 2 2 3 2 1 1 1 1 2 1 0 0 1 2 3 4 2 1 2 5 6 6 6 5 5 4 5 4 4 4 4 4 3 4 9 10 9 9 9 9 9 9 10 10 9 10 9 10 9 9 9 9 9 9 9 10 9 9 9 10 11 11 10 10 10 10 9 9 9 9 10 10 10 9 9 9 10 10 10
3 2 1 1 0 0 1 2 2 2 1 2 1 1 0 0 2 1 1 2 3 4 3 1 1 4 5 6 6 5 5 5 4 4 5 5 5 5 5 4 4 9 11 11 11 11 11 11 11 10 10 10 11 11 11 11 11 10 10 11 10 10 11 11 10 10 11 11 11 10 11 10 10 10 10 10 10 10 10 10 10 10 11 11 11
4 3 1 0 1 0 1 3 3 1 1 1 2 1 1 0 1 1 2 1 2 3 4 4 1 2 3 4 5 5 5 5 5 5 4 5 5 5 5 5 5 5 5 11 12 12 12 12 11 11 11 11 11 12 12 12 12 12 12 11 11 12 12 12 12 12 11 11 12 12 12 11 11 11 10 10 10 10 10 10 11 11 11 12 12
2 3 1 1 1 1 3 4 1 0 0 1 2 0 1 1 0 1 2 2 3 2 1 2 1 4 4 4 6 4 5 5 5 5 5 4 4 5 5 5 5 5 5 5 8 13 13 12 12 12 12 12 12 13 13 13 13 13 13 13 13 13 13 13 12 12 12 12 12 12 12 12 11 11 11 11 11 11 12 12 12 12 12 12 13
3 3 3 2 3 4 4 2 1 0 0 1 2 2 0 0 1 0 2 2 3 4 2 2 2 4 3 5 5 6 6 5 5 5 5 4 5 5 5 5 5 5 5 5 5 6 12 13 13 13 13 13 13 13 14 14 14 14 14 14 14 14 13 13 13 12 12 12 12 12 12 12 12 11 12 12 12 12 12 13 13 12 13 13 14
5 6 6 5 5 2 1 1 1 1 0 1 2 2 2 1 1 0 0 1 3 3 5 2 2 3 4 4 5 6 7 6 6 6 5 5 5 5 5 5 5 7 5 5 5 5 8 13 13 14 14 14 14 14 14 15 15 14 14 14 14 14 13 13 13 12 12 12 12 12 12 12 12 12 12 13 13 12 12 13 14 14 13 14 14
2 3 3 3 3 3 2 1 2 2 2 2 1 1 0 1 1 2 0 0 2 3 4 2 2 2 1 2 1 2 5 6 6 5 5 6 5 5 6 6 5 6 5 5 6 5 5 8 12 14 14 14 14 14 14 14 15 15 15 14 14 14 14 12 12 12 12 12 12 12 12 12 12 12 12 13 13 14 13 13 13 14 14 13 13
2 2 1 3 3 2 2 2 2 2 2 2 1 0 2 1 1 2 1 2 3 3 2 3 2 1 2 3 2 2 2 2 5 6 6 7 6 7 5 5 5 5 5 5 5 5 5 5 5 5 7 12 14 14 14 14 14 14 14 14 14 14 14 13 13 12 12 12 12 12 12 12 12 12 13 13 13 12 12 14 14 14 14 12 11
2 2 2 2 3 2 2 1 2 2 2 2 1 2 3 1 2 2 3 3 2 4 2 2 1 2 2 3 3 3 3 3 2 4 5 5 6 5 5 5 5 6 6 6 5 6 6 5 5 5 5 8 12 13 14 14 13 13 13 14 14 14 14 14 13 12 12 12 11 10 9 10 12 13 12 12 11 11 12 12 13 12 12 11 11
2 2 3 2 2 2 2 2 1 1 2 3 3 2 1 1 2 1 2 2 2 2 2 0 2 2 2 2 3 3 2 2 4 3 4 5 4 5 5 5 6 6 6 5 6 6 6 6 6 5 6 5 6 10 13 13 13 13 13 13 13 14 14 14 13 11 11 11 10 8 8 8 10 11 10 10 10 10 10 10 10 12 11 11 10
2 2 2 3 3 3 2 2 1 0 0 0 1 1 1 2 1 2 0 1 2 2 2 1 2 1 1 1 3 4 3 2 3 4 4 4 4 4 5 6 6 6 5 5 6 6 6 6 5 5 5 5 6 5 6 8 9 13 13 13 13 13 14 14 13 11 10 10 9 7 7 6 7 9 9 9 9 9 9 8 8 9 10 10 9
3 3 3 3 3 3 2 1 1 1 1 0 1 2 2 3 3 3 3 1 2 3 2 1 0 1 1 1 1 1 3 3 3 4 5 5 5 5 6 7 8 6 5 5 6 6 7 5 5 5 6 6 6 6 6 6 8 10 11 12 12 13 13 13 12 11 9 9 7 6 6 6 8 8 8 8 8 7 7 7 7 8 8 8 8
3 3 3 3 3 4 3 2 2 1 1 1 2 2 2 2 1 1 1 2 1 2 1 2 1 3 0 1 1 1 2 4 5 5 4 6 6 6 5 6 7 4 4 6 7 7 7 5 5 6 6 6 6 6 6 6 8 10 11 11 11 11 11 11 10 9 8 7 6 5 5 6 6 7 8 8 8 7 7 7 7 8 7 8 8
3 3 3 4 3 3 3 3 3 2 2 2 3 3 3 2 1 1 1 1 3 2 1 1 2 2 2 1 2 1 2 4 1 6 1 3 5 6 6 7 6 5 5 7 6 6 6 5 6 5 6 6 6 6 5 4 5 4 6 8 10 9 9 8 8 7 7 6 5 4 4 5 6 7 7 8 7 7 6 6 7 6 6 6 6
3 3 3 3 4 4 4 3 3 3 4 3 3 2 3 2 3 2 3 2 2 2 2 0 1 1 2 2 3 1 2 1 1 3 3 2 4 4 6 6 5 6 5 5 6 6 5 6 4 6 6 6 6 3 3 4 5 4 3 5 6 5 5 4 5 6 5 5 4 4 4 4 5 6 6 7 6 5 6 6 6 5 5 4 4
4 4 3 3 3 3 3 3 2 2 2 2 2 3 3 2 1 2 4 3 1 1 1 3 3 1 1 2 1 3 4 1 2 0 1 3 2 0 4 5 4 5 6 6 5 5 5 4 5 6 6 6 3 1 3 4 3 2 3 2 3 2 2 2 3 4 4 4 4 3 4 4 4 4 5 5 5 5 6 6 6 6 5 5 5
6 5 5 4 4 4 4 4 3 4 3 3 4 3 3 3 3 3 3 2 2 3 1 2 2 3 2 3 1 2 2 2 3 1 2 1 4 3 1 0 1 3 5 7 4 5 6 5 5 5 6 5 2 2 3 1 0 1 1 2 3 2 1 2 2 3 4 5 3 3 3 4 4 3 3 5 5 6 6 7 7 6 7 6 6
6 6 5 5 4 5 4 4 4 4 4 4 3 3 3 3 4 1 1 0 1 1 1 0 1 1 3 2 3 3 3 1 1 2 2 1 1 1 2 2 0 4 5 5 4 4 5 6 5 6 4 4 3 3 2 2 3 2 3 4 2 3 1 2 2 3 3 4 4 3 4 4 3 3 4 4 5 6 7 7 8 8 8 7 7
5 5 5 5 5 5 5 5 4 5 4 4 3 2 3 3 3 3 1 1 1 1 0 2 1 1 1 1 2 3 5 3 2 3 1 1 1 2 2 1 2 5 4 6 6 5 4 4 5 6 4 5 3 3 3 4 3 2 4 4 2 3 1 3 2 2 2 4 4 4 3 3 3 3 4 5 5 6 7 8 8 8 8 7 7
5 5 6 5 4 4 4 4 3 3 3 3 3 3 3 3 3 2 0 1 3 2 3 3 2 2 2 1 1 1 1 2 5 4 0 1 2 2 3 2 3 4 4 5 6 3 5 4 5 6 6 4 3 3 4 4 3 4 5 5 4 3 2 2 2 3 1 2 4 3 2 2 3 3 4 5 5 6 7 7 8 8 7 7 7
5 5 5 5 5 4 3 3 3 3 3 3 3 3 2 2 3 1 1 1 1 1 2 3 4 4 4 3 1 0 1 2 4 4 2 4 1 2 2 2 1 2 5 3 1 3 4 6 7 7 6 4 3 4 4 4 5 6 4 5 4 4 3 1 3 3 1 1 3 2 2 3 2 3 3 4 4 5 6 7 7 7 7 8 8
5 5 5 5 4 4 3 4 4 3 3 3 3 3 2 2 3 2 2 1 2 1 2 3 3 3 5 4 2 1 1 3 2 2 2 2 3 0 1 0 0 2 2 1 0 2 3 5 6 6 5 3 3 4 5 5 3 5 6 4 5 4 4 2 3 3 2 1 2 2 1 0 0 1 2 2 3 3 5 6 6 6 7 8 9
6 6 6 6 5 5 4 4 4 3 2 3 2 2 0 2 3 3 3 3 1 2 3 3 3 3 2 4 3 3 2 3 3 4 1 2 1 2 1 1 1 2 2 2 1 0 1 1 0 0 1 3 4 3 4 4 3 5 7 4 4 5 6 4 3 3 4 3 3 2 2 2 1 1 1 2 3 4 4 5 6 7 7 8 9
7 6 5 6 6 5 5 4 4 3 3 3 2 1 1 2 3 4 3 3 3 3 3 4 4 5 4 3 3 2 1 3 4 4 1 1 2 2 2 1 3 4 4 2 3 0 2 2 1 0 3 4 4 4 3 3 5 5 6 3 3 6 6 6 4 4 4 4 4 4 3 3 2 2 2 2 3 5 4 5 6 6 7 8 9
6 6 6 6 6 6 5 5 4 4 3 3 3 3 2 3 2 1 3 2 3 3 4 4 5 4 4 4 3 4 1 2 2 2 1 0 2 3 3 3 1 3 4 4 4 2 1 0 1 2 3 2 3 2 3 3 3 3 6 3 4 4 7 7 6 5 5 5 5 5 5 4 3 3 4 4 4 4 4 5 5 6 7 8 8
6 6 6 6 6 7 6 6 5 5 4 4 3 3 3 3 3 2 3 2 2 3 3 3 4 4 3 4 3 4 3 2 3 3 2 1 1 3 3 3 4 1 1 2 2 1 2 1 0 2 0 1 2 1 1 3 4 3 3 4 4 4 7 8 7 6 5 6 6 6 5 5 4 5 5 5 3 3 4 4 5 5 7 7 8
7 7 7 7 6 7 6 6 6 5 5 5 4 3 3 3 3 3 3 2 3 2 3 3 4 3 3 4 4 5 4 2 3 2 3 2 2 2 3 3 4 1 2 0 3 2 2 3 0 2 3 3 3 4 3 4 7 5 4 4 4 5 8 8 7 6 6 6 7 7 6 6 6 5 5 5 4 3 3 4 5 6 7 7 8
7 6 7 7 7 7 6 6 5 6 5 5 4 4 4 4 3 4 3 3 3 3 4 3 4 3 4 5 4 4 3 2 1 3 1 2 2 0 1 2 2 3 4 2 0 2 1 2 2 1 2 3 4 4 4 4 5 7 4 4 5 8 7 6 8 7 7 7 7 7 7 7 6 5 5 5 4 2 2 4 6 6 6 7 7
6 6 6 7 7 8 6 6 6 6 6 5 5 4 4 5 5 5 4 3 3 4 4 4 3 3 4 4 4 4 4 2 1 2 3 2 0 1 0 2 1 2 4 2 2 5 3 2 4 4 3 3 5 4 4 3 3 4 4 4 4 5 4 4 7 8 8 8 8 8 8 8 7 6 6 6 6 4 2 2 4 5 6 6 6
6 6 6 7 8 8 7 6 6 6 6 6 5 5 5 5 5 5 4 4 4 5 4 4 3 3 3 4 4 4 3 2 4 2 2 3 4 3 2 1 3 2 2 2 2 6 4 2 3 3 3 3 3 1 3 4 5 3 2 3 3 3 3 5 5 8 9 9 9 9 9 8 8 7 7 6 7 5 3 3 3 4 4 5 5
6 7 6 6 6 8 8 7 6 7 6 6 6 5 6 5 5 5 5 4 5 5 4 4 5 4 3 4 4 5 3 3 3 3 2 3 3 3 4 3 4 4 2 2 3 2 6 3 3 4 3 0 3 1 2 4 4 3 3 3 3 3 4 4 4 5 10 10 10 10 10 9 9 8 7 7 8 6 4 4 4 3 3 3 4
6 7 7 6 6 7 7 7 7 6 7 7 5 6 6 6 7 6 5 5 5 5 5 6 5 4 4 4 5 4 3 3 3 3 3 3 2 2 4 3 3 5 3 3 2 3 4 6 2 2 2 1 2 3 3 2 3 3 4 4 4 4 4 5 5 5 8 12 12 11 11 10 9 9 8 8 8 8 6 6 5 4 3 1 2
8 7 7 8 7 7 7 7 7 6 6 6 6 6 7 7 7 7 6 5 5 5 6 6 6 5 5 4 4 4 3 3 4 4 4 3 3 3 4 4 3 4 4 3 4 4 3 4 4 3 3 3 3 3 3 3 4 5 3 4 3 4 5 5 6 5 7 12 12 12 11 10 10 10 10 9 9 8 8 7 6 5 4 2 1
8 7 6 6 7 8 9 8 8 7 7 7 7 7 7 7 8 8 7 6 6 6 6 6 6 6 6 6 6 4 3 4 4 4 4 4 5 3 4 4 4 4 3 3 4 4 4 5 5 3 2 2 2 3 3 4 5 4 4 4 5 5 4 4 4 5 6 10 11 11 10 10 10 9 10 10 9 8 8 8 7 6 5 4 3
7 7 8 6 7 9 9 8 8 8 8 8 8 9 8 7 7 7 7 7 7 7 6 6 6 5 6 6 5 5 4 5 5 5 4 5 5 5 5 5 4 3 4 4 3 3 3 5 4 5 2 3 3 4 4 3 4 5 6 6 5 3 2 3 4 4 2 4 4 6 6 7 8 9 10 10 9 8 9 9 9 8 7 5 5
8 8 8 8 8 9 9 9 9 9 9 8 8 9 9 8 9 8 8 8 7 7 6 7 6 6 6 6 6 6 6 6 6 6 6 5 5 6 6 6 5 4 4 5 4 4 4 5 4 4 5 4 3 5 5 1 2 4 4 6 6 3 1 3 5 3 1 3 4 6 6 5 6 6 9 11 10 9 10 10 10 10 8 7 6
9 10 10 10 10 9 10 10 10 9 9 9 8 9 9 9 9 8 8 8 8 7 7 7 6 6 7 7 7 7 7 7 7 7 6 7 5 6 7 5 5 5 6 6 5 5 5 4 5 6 4 4 3 4 3 3 4 4 3 4 5 6 7 2 4 4 3 3 4 4 4 5 5 7 9 9 10 10 11 11 12 11 11 9 7
6 7 8 10 10 10 10 10 10 9 9 9 8 8 9 9 9 9 9 8 8 8 7 7 7 7 6 7 7 7 7 10 12 10 9 9 6 7 7 5 5 5 6 6 6 6 6 6 7 5 4 5 6 5 6 5 6 8 3 1 3 5 4 5 5 4 5 5 4 3 5 5 5 6 5 6 7 8 10 11 9 11 12 10 9
1 3 3 4 6 9 10 10 10 9 8 8 10 15 13 9 9 9 8 8 8 8 7 7 7 7 8 7 7 11 13 13 13 14 14 14 13 10 8 6 7 6 6 6 7 7 6 7 7 7 7 7 8 7 6 6 5 3 4 4 4 6 4 4 5 4 5 5 4 4 6 3 5 5 5 8 7 6 7 6 10 10 10 12 11
1 2 4 5 5 6 7 8 8 8 8 8 14 15 16 17 11 9 9 9 8 7 7 7 8 8 7 7 7 9 11 11 11 14 15 15 15 15 16 14 10 8 7 8 8 7 6 7 7 6 7 8 9 7 7 7 4 5 5 4 5 4 4 4 5 6 1 6 3 3 5 4 6 6 7 8 7 6 7 9 14 13 13 11 12
2 1 3 4 5 6 6 7 8 8 8 11 15 15 16 17 15 10 8 8 8 8 8 8 8 8 8 8 7 7 7 9 9 8 10 13 15 15 16 16 16 15 14 10 9 7 6 7 8 8 7 8 9 6 7 4 7 5 5 5 5 5 6 4 3 3 3 3 4 3 6 2 5 6 6 8 7 7 9 12 13 14 14 14 12
3 3 4 3 4 3 5 6 7 8 8 12 13 15 16 17 18 14 9 8 8 8 8 9 9 9 8 8 8 7 8 13 11 9 8 9 11 14 14 15 14 14 14 15 14 11 8 8 8 9 9 7 7 8 6 4 3 4 5 5 4 4 5 5 6 5 6 4 2 3 5 3 6 5 7 9 7 6 8 11 15 15 14 14 14
3 4 4 3 3 3 3 3 3 4 6 10 15 16 16 17 18 15 10 10 9 9 9 9 9 9 9 9 9 9 8 8 7 7 7 7 7 6 6 6 7 10 14 16 17 18 13 10 9 10 10 6 9 9 8 4 4 6 6 7 5 4 5 8 7 7 5 2 5 2 4 4 5 5 6 8 6 6 7 10 14 15 15 15 15
3 4 4 4 3 3 2 3 3 4 5 9 13 15 17 18 18 14 10 10 9 9 9 9 9 10 9 9 9 10 9 8 8 10 9 9 8 8 8 9 9 8 8 8 8 9 9 9 10 11 12 9 10 10 8 5 7 8 7 7 5 5 5 3 3 3 5 4 3 2 6 6 2 3 6 7 5 6 6 8 12 14 15 15 15
3 3 3 3 5 6 4 3 4 5 6 6 6 10 13 14 14 8 8 8 9 9 9 9 9 9 10 9 9 10 10 10 12 16 14 10 8 9 9 9 9 9 9 10 13 12 11 10 10 12 12 12 12 9 8 6 6 6 4 1 1 3 3 5 7 4 5 4 5 5 3 5 4 5 6 4 2 5 5 4 6 11 14 15 15
3 3 3 4 4 5 5 4 5 6 6 7 8 6 7 10 8 7 7 8 9 10 11 9 8 8 8 9 9 10 10 10 14 16 16 14 9 10 10 10 10 9 10 9 11 14 16 16 17 17 17 17 16 13 12 11 9 5 0 2 7 7 6 8 9 7 8 3 4 7 5 6 6 5 6 3 2 4 6 6 3 6 12 14 15
4 4 4 4 4 4 5 5 5 6 7 6 8 6 7 10 10 7 7 8 10 10 11 10 8 8 9 13 13 11 11 12 15 16 17 12 9 10 10 11 11 11 10 9 6 7 13 15 15 16 16 15 15 15 14 15 16 7 5 9 11 5 7 7 9 8 6 2 6 6 3 7 6 3 4 2 2 3 5 4 3 3 6 9 12
4 4 3 4 4 4 4 5 7 8 7 5 6 10 11 11 9 5 5 5 6 7 7 8 8 8 9 11 16 15 13 15 17 16 16 12 10 10 10 9 10 11 10 8 6 7 6 5 6 7 9 12 12 10 12 17 16 9 8 11 8 6 9 9 8 6 6 7 7 9 6 5 4 5 4 1 3 5 2 2 2 3 4 4 5
Wind_Direction
112 96 64 65 43 39 32 20 80 46 93 71 147 161 194 210 221 245 259 280 295 293 278 244 184 189 174 176 173 163 157 154 153 149 161 187 191 191 181 189 196 194 200 202 204 204 211 219 220 223 225 226 231 228 236 234 235 243 240 246 251 260 270 278 282 286 287 291 295 299 300 302 301 298 296 296 292 292 292 290 292 288 287 274 271
117 96 97 80 47 23 18 341 3 325 145 221 190 165 190 198 234 271 311 318 312 286 289 269 196 189 167 171 172 174 167 167 167 168 171 179 192 210 189 196 200 205 212 215 218 219 219 222 225 226 229 229 229 230 233 237 238 242 248 255 264 268 271 274 278 281 286 288 291 290 291 293 292 291 288 289 289 287 286 285 287 290 289 286 279
109 110 82 72 45 31 351 327 316 256 168 195 222 176 187 188 204 252 320 316 301 279 275 332 196 171 170 169 172 171 173 171 165 166 177 184 189 213 211 201 206 211 218 221 226 228 228 226 225 228 230 232 234 234 236 236 241 249 256 261 265 270 274 277 281 283 283 284 286 287 290 291 287 287 286 285 286 288 288 289 288 288 286 282 279
143 137 141 100 55 31 333 326 286 252 183 203 175 164 176 195 224 205 218 251 276 295 305 359 201 173 165 168 168 173 175 171 172 179 182 185 190 203 212 211 212 214 220 223 227 230 231 231 230 232 233 237 238 239 245 248 248 251 255 262 265 271 280 281 279 281 281 279 282 286 289 286 284 285 285 284 285 286 287 288 287 284 281 280 279
149 131 85 23 69 18 345 292 269 241 233 215 159 142 76 356 324 351 327 341 345 321 332 299 191 191 166 170 170 176 168 169 178 177 192 190 194 201 203 213 217 219 221 225 227 229 232 233 235 237 239 240 245 249 250 251 254 257 258 260 264 267 269 272 274 277 281 284 285 285 284 284 285 284 283 284 284 284 283 281 281 282 281 279 278
137 119 98 39 358 350 285 272 260 270 253 168 159 136 130 22 306 19 330 356 318 322 345 325 238 220 183 171 179 169 167 176 181 185 186 196 195 198 209 214 215 224 229 229 231 233 234 235 237 240 242 246 247 250 253 255 259 260 263 268 268 271 275 280 281 281 284 284 284 284 285 284 284 284 284 284 281 282 282 281 280 279 277 276 277
118 115 103 143 274 261 242 245 257 328 47 147 145 101 141 246 305 297 323 350 355 317 322 309 210 194 192 184 186 163 169 186 183 181 189 200 192 206 206 211 216 221 229 235 241 239 240 241 241 242 245 247 251 253 254 256 257 260 263 265 266 267 269 273 277 279 279 282 282 282 281 282 282 282 284 286 287 285 285 285 283 281 278 275 274
155 155 179 192 217 214 221 230 198 7 264 117 117 139 80 352 320 161 321 330 358 328 344 312 252 208 192 185 180 171 180 182 188 194 188 189 206 209 212 215 217 221 222 227 234 246 244 243 245 247 247 249 251 254 256 258 259 260 262 264 265 267 271 273 275 276 277 277 279 279 280 281 282 283 284 286 286 285 282 282 282 279 276 275 274
163 174 183 181 202 177 175 125 132 167 81 65 135 159 165 197 297 312 145 286 342 328 327 327 275 208 199 191 162 165 178 182 187 196 175 196 213 208 212 221 223 224 223 224 232 238 246 246 246 248 250 250 252 253 256 259 261 262 262 263 265 267 268 270 272 273 273 273 273 275 278 281 283 285 287 289 288 287 283 281 282 281 277 273 272
143 142 142 150 132 107 78 56 93 98 79 69 107 159 146 161 247 294 201 58 329 314 292 342 260 221 198 203 243 175 170 178 187 185 183 203 215 213 211 214 216 225 223 224 228 233 241 249 249 250 251 252 252 253 255 257 260 262 263 264 265 266 267 266 266 267 268 269 270 273 275 279 283 288 289 289 290 290 288 285 282 285 288 286 280
90 74 70 79 92 104 110 92 78 67 65 65 65 166 202 225 264 307 308 232 240 246 275 259 322 219 204 230 241 238 245 185 179 189 196 203 211 217 205 218 215 223 227 226 232 235 237 242 244 248 252 252 253 253 253 255 257 259 261 262 263 263 264 263 263 263 263 264 266 269 274 283 288 291 293 292 292 291 289 290 293 295 296 293 287
94 71 84 103 110 99 88 66 80 88 109 123 199 213 211 243 278 275 299 302 254 264 275 313 330 169 211 247 266 245 233 266 236 191 200 210 221 216 220 217 218 226 226 228 229 233 237 239 240 241 247 254 254 255 256 256 256 257 259 261 262 263 263 263 263 263 263 265 269 274 280 286 291 297 295 294 291 290 291 294 299 301 301 297 294
111 108 128 132 106 88 76 64 70 107 158 196 212 219 258 205 264 271 267 288 308 292 306 252 88 62 7 346 322 300 286 245 243 237 206 216 233 224 231 228 226 225 228 223 229 233 232 238 236 241 244 249 259 259 258 257 256 256 257 259 260 262 263 264 266 267 270 274 281 288 291 290 292 299 296 293 293 295 297 298 298 304 305 307 307
142 140 131 124 116 100 98 125 102 214 243 231 271 306 318 298 299 289 331 263 271 265 265 62 13 137 146 329 332 318 290 297 274 254 234 221 200 217 232 230 229 225 223 221 231 237 237 232 235 240 244 246 251 257 261 261 259 255 253 254 258 260 262 265 268 273 277 282 292 297 299 299 296 297 297 298 298 301 302 305 307 314 317 318 321
153 148 138 139 141 135 153 172 181 226 145 243 310 317 280 269 229 232 303 322 282 286 273 111 189 107 98 73 326 351 324 337 288 249 248 235 216 218 221 230 234 221 209 212 232 238 242 233 235 237 244 245 249 251 254 255 255 253 253 255 257 261 265 268 272 277 282 294 308 318 317 306 303 300 304 305 309 317 321 324 326 330 330 334 356
167 161 152 150 156 162 164 176 212 230 176 201 263 264 277 279 230 238 130 317 335 305 232 186 144 108 338 193 240 124 335 288 255 272 232 232 218 215 212 230 239 220 175 217 227 231 239 237 235 236 240 244 246 251 253 257 266 269 263 259 258 260 265 271 276 284 297 311 329 331 320 305 298 306 317 323 329 337 342 349 353 352 12 30 30
171 172 169 168 165 164 173 193 199 206 194 215 232 234 236 246 204 225 209 195 302 300 306 163 211 191 137 48 357 17 235 253 349 283 249 243 240 219 212 220 233 221 200 231 232 229 232 232 239 239 241 245 251 250 257 273 278 267 269 269 265 265 268 268 277 293 314 324 328 324 308 303 314 320 328 333 338 352 0 9 13 24 37 29 30
170 175 177 171 173 175 183 189 200 212 213 219 223 268 281 274 237 218 263 253 234 316 300 199 199 207 175 163 168 199 265 281 83 275 328 217 255 226 216 224 219 225 210 229 233 233 230 234 239 242 241 242 245 260 256 251 251 256 262 269 282 291 285 281 289 315 328 331 334 328 317 321 324 330 339 341 352 10 10 27 28 27 37 36 17
177 175 181 184 181 183 186 195 197 211 237 237 259 240 255 267 249 211 240 262 178 211 8 292 339 292 28 313 220 216 183 188 254 121 17 323 5 265 248 238 216 219 230 224 218 227 235 227 236 243 248 246 246 229 237 252 251 212 231 257 292 310 312 321 334 337 335 338 341 331 326 328 336 345 346 355 7 19 16 28 27 21 17 23 15
171 177 184 186 184 190 191 195 193 211 212 204 227 252 279 281 255 223 250 232 179 94 55 23 93 283 324 299 257 212 192 179 145 154 163 74 326 320 299 197 301 270 244 240 224 213 222 219 224 241 249 260 275 248 248 211 161 199 241 216 278 257 291 5 6 339 342 340 342 330 331 343 350 360 2 18 21 21 18 17 16 12 7 8 12
175 173 183 184 184 187 191 195 204 213 211 207 223 230 245 266 277 246 221 294 67 122 112 238 69 309 325 329 347 3 342 20 107 98 95 98 290 258 280 346 271 259 253 251 239 210 220 215 212 229 240 271 260 234 187 186 218 186 246 228 236 259 172 54 42 4 360 337 336 337 347 357 2 18 34 40 30 19 13 10 6 4 5 9 14
178 177 175 183 187 186 188 193 205 206 207 205 215 239 258 256 246 243 218 10 6 150 252 257 235 275 195 250 15 335 2 356 13 39 38 100 139 315 273 221 236 271 262 248 231 209 216 219 222 238 236 241 242 193 182 203 208 192 225 223 229 282 261 77 62 47 23 340 335 337 358 7 22 35 46 45 30 17 12 4 3 4 7 9 14
174 182 182 185 191 194 191 202 203 209 205 192 210 221 238 242 243 246 345 290 291 4 1 340 345 338 343 25 312 50 297 349 306 324 61 297 14 324 321 222 209 257 273 234 235 190 209 206 220 237 232 228 220 184 204 211 213 215 194 213 224 267 272 84 96 91 80 336 330 329 10 29 44 48 48 41 31 16 7 5 3 7 8 11 17
177 176 185 190 188 196 199 194 207 211 217 210 218 216 222 224 231 240 290 279 283 333 9 335 334 334 311 304 302 161 160 227 262 250 236 251 196 259 266 305 276 241 286 322 23 155 204 219 218 221 226 209 207 196 209 211 213 206 183 207 215 252 262 119 122 125 141 302 315 352 30 35 45 48 41 35 24 15 7 6 6 6 9 13 17
188 182 190 190 188 191 201 203 221 226 225 208 230 227 222 200 228 240 230 264 262 262 301 290 306 315 295 300 291 305 266 238 249 266 226 188 140 158 275 64 194 288 291 15 309 306 235 221 225 216 210 199 211 199 207 209 203 200 191 199 214 243 248 179 133 140 159 213 273 241 200 142 53 46 33 17 8 7 8 8 5 4 8 17 18
186 193 191 185 190 196 196 209 214 220 222 225 229 234 209 209 214 226 232 231 223 252 258 281 302 283 284 290 313 328 303 298 341 14 282 155 128 171 226 321 93 321 293 1 314 123 307 283 348 322 307 227 218 205 196 212 215 218 196 185 214 236 245 217 172 158 178 193 225 217 203 191 208 265 317 330 342 1 18 9 4 3 8 16 20
187 197 187 185 194 193 199 206 211 216 221 232 217 230 238 226 207 218 244 247 255 257 272 281 288 300 312 291 295 325 292 308 347 3 312 166 154 182 133 6 344 8 348 322 338 356 231 328 312 351 238 235 210 208 208 206 221 203 201 184 206 227 239 231 196 173 184 198 211 202 206 206 221 250 279 301 325 349 17 11 2 2 9 15 22
196 190 195 185 192 195 198 204 200 200 206 214 192 203 201 185 161 181 230 234 241 251 259 269 275 284 295 306 318 301 254 295 317 322 312 35 130 112 98 101 125 312 343 344 355 325 278 252 309 236 230 266 272 239 257 247 235 210 195 185 208 227 235 231 210 184 191 202 199 200 203 201 218 244 265 281 309 333 1 8 357 358 9 16 21
190 195 194 196 194 192 194 199 191 191 193 203 198 201 199 203 190 194 222 258 217 227 248 261 266 284 300 293 287 289 278 268 304 317 308 324 231 154 162 145 154 118 322 345 291 276 311 318 101 291 75 251 270 225 269 268 252 198 203 200 212 224 228 225 217 195 195 210 197 194 195 199 209 239 259 279 299 327 352 358 348 350 9 16 20
186 192 191 194 196 192 187 194 194 185 192 198 197 196 190 205 212 217 233 235 256 268 258 250 264 280 296 307 311 306 284 252 312 276 280 229 210 167 158 150 139 143 172 174 279 231 273 316 257 326 319 339 305 287 230 242 241 217 209 207 216 228 226 217 214 200 201 215 204 192 195 199 210 228 261 278 291 316 350 340 337 348 8 15 17
191 180 186 191 190 190 184 186 189 191 191 197 194 193 192 205 211 227 244 232 236 255 262 249 258 268 289 298 303 292 290 293 336 311 293 241 288 248 109 117 115 130 144 128 10 290 219 330 303 297 308 315 314 295 285 251 237 217 213 215 223 231 222 216 213 204 208 220 213 200 197 200 206 222 245 270 280 305 347 327 335 345 8 13 14
201 183 182 182 184 186 188 185 186 190 193 201 195 196 194 207 210 215 233 220 227 240 253 247 252 266 279 290 284 271 285 342 350 320 333 315 212 325 354 112 104 133 127 128 182 257 276 255 278 292 270 288 304 332 335 316 285 217 224 224 236 232 208 217 211 209 210 218 217 208 202 201 207 214 233 259 277 291 310 319 318 339 3 11 13
201 193 184 184 183 184 187 189 189 191 196 200 204 199 198 211 217 210 222 220 222 232 229 251 254 258 265 272 282 274 256 253 274 299 332 327 335 325 313 272 199 175 145 152 231 285 295 262 256 273 311 334 324 15 351 328 324 333 305 282 272 223 217 215 216 214 214 216 218 214 208 205 210 215 227 249 267 277 291 288 305 332 0 12 9
195 200 196 189 186 184 187 191 194 194 195 199 203 199 205 215 221 210 212 219 226 236 229 240 252 254 251 261 279 282 266 244 262 292 270 313 327 321 303 286 294 265 202 159 213 214 280 315 317 312 296 304 309 278 348 330 324 329 310 263 253 245 240 230 221 224 214 214 217 216 213 209 212 219 224 239 256 265 268 278 281 308 328 22 357
200 197 200 197 191 189 188 187 189 193 196 199 200 198 208 212 218 221 215 209 215 226 229 233 237 244 257 256 263 271 279 274 275 265 279 272 254 253 277 269 266 278 261 211 171 236 264 280 237 287 263 294 242 276 296 280 281 276 290 290 257 241 236 221 220 231 212 215 217 216 215 212 214 219 223 232 246 256 261 258 261 273 302 359 331
197 204 198 197 193 195 195 196 194 190 192 202 203 202 204 207 216 222 223 217 216 219 221 226 229 231 237 250 256 256 269 266 266 272 273 267 260 242 255 272 267 273 273 215 212 217 233 271 303 283 270 301 296 280 278 297 299 308 279 278 268 240 232 220 219 226 214 211 216 216 217 216 217 220 225 229 237 248 253 256 253 256 266 259 240
202 195 201 196 193 196 201 202 203 203 199 198 204 210 211 208 212 217 219 220 221 221 224 226 226 222 229 228 243 247 250 255 266 269 268 273 267 248 233 250 254 258 274 235 234 219 227 244 267 272 270 278 257 278 274 286 309 309 308 296 289 287 261 230 220 228 222 207 218 222 222 222 223 226 231 233 236 241 249 254 251 249 251 252 239
204 201 192 194 194 199 204 205 205 206 204 200 202 207 209 210 213 216 217 218 222 221 222 225 227 224 225 230 232 229 231 230 246 250 254 258 264 264 268 259 237 242 257 273 252 231 224 245 243 290 313 260 292 274 263 245 284 302 309 304 306 292 258 290 251 225 176 166 187 220 234 240 241 240 241 242 239 239 247 252 252 250 246 245 238
201 202 201 197 200 198 205 205 206 207 205 204 204 205 207 207 209 213 218 219 223 224 226 226 225 224 228 232 232 227 228 228 234 237 240 246 242 248 244 250 260 239 242 246 244 239 236 250 267 242 265 274 235 279 290 301 247 225 258 304 310 293 253 223 265 256 186 208 224 219 219 218 227 235 246 249 247 241 245 250 252 249 248 241 236
211 202 202 202 204 203 205 204 209 205 204 206 208 207 206 205 205 212 213 216 222 225 229 229 228 225 225 227 229 226 224 226 223 231 221 234 230 241 242 238 246 252 261 260 261 253 255 257 249 269 241 258 290 257 290 334 312 303 217 210 258 289 300 281 223 234 229 203 231 228 217 213 231 241 254 257 247 241 242 251 250 249 246 239 234
213 232 214 203 201 209 212 211 212 208 205 209 207 206 208 212 210 214 213 214 216 223 228 232 229 228 228 227 229 230 225 226 223 224 224 220 218 231 246 228 240 242 253 258 252 254 256 253 272 262 271 280 267 275 287 276 255 251 241 158 257 265 268 297 286 229 202 200 221 219 234 205 217 236 239 257 243 222 239 234 249 241 241 237 232
238 189 211 213 214 212 212 215 215 211 212 212 213 209 205 205 211 217 218 217 217 219 223 231 237 232 231 228 232 228 230 234 235 236 238 239 234 226 233 222 225 225 232 242 247 242 242 252 251 254 262 259 259 248 246 246 239 261 293 280 275 285 316 290 285 263 203 178 172 221 251 188 199 241 227 247 249 214 232 223 232 228 227 226 227
237 296 201 186 189 196 211 220 220 222 222 220 216 210 211 210 207 212 215 220 217 217 220 223 233 238 241 238 239 245 246 245 244 241 241 243 246 244 242 238 222 210 224 228 236 233 233 237 245 245 241 253 257 247 241 253 248 238 245 252 261 282 279 279 287 306 225 169 174 196 264 199 173 219 235 241 246 221 225 231 232 227 223 221 222
236 218 276 230 197 190 192 200 212 220 227 231 223 216 214 216 214 213 216 220 219 215 218 222 227 232 238 240 239 238 238 237 239 245 244 244 244 246 248 248 247 237 228 219 228 237 226 234 242 238 235 240 253 251 256 248 256 259 248 243 246 252 260 244 231 234 256 169 178 191 266 190 181 210 247 248 240 227 229 233 232 228 220 219 219
233 234 232 246 261 234 191 187 203 211 221 229 229 226 223 220 219 219 222 221 227 229 225 226 228 228 229 233 240 236 240 236 236 237 239 247 245 242 245 251 254 250 248 247 242 237 228 225 234 244 230 237 246 250 228 226 203 243 266 258 245 229 227 241 241 252 274 201 172 247 263 215 168 199 230 253 239 230 238 233 230 225 219 215 217
279 273 271 260 255 258 262 247 225 221 220 225 220 223 226 226 224 218 229 227 226 232 234 233 233 233 232 232 235 242 238 238 235 231 229 231 239 248 250 244 243 251 247 239 238 240 238 234 231 239 244 209 236 243 242 210 216 244 247 255 245 246 239 235 235 229 248 171 193 195 286 268 189 193 234 258 233 233 232 231 223 222 216 212 214
244 260 279 293 288 273 243 220 235 248 241 233 226 222 222 224 227 220 230 234 236 235 236 236 236 236 235 233 235 241 245 238 235 233 236 240 241 246 253 256 252 250 247 245 239 235 235 231 234 238 248 238 236 246 250 213 216 232 234 248 246 241 251 277 306 248 265 228 187 145 250 267 180 196 247 262 265 254 245 236 222 217 211 209 211
255 247 269 273 281 286 275 250 242 244 250 244 220 219 225 230 229 228 235 239 240 242 241 238 236 236 235 233 232 238 242 243 242 238 236 238 241 246 250 254 259 256 251 242 239 236 231 230 232 238 242 246 241 240 242 230 227 240 256 328 307 254 279 291 270 271 252 251 195 183 232 265 223 205 256 261 277 267 264 250 226 211 209 207 209
272 252 241 242 244 254 269 272 257 257 258 231 218 191 190 210 204 218 222 229 237 240 243 241 241 242 244 241 239 241 243 243 244 238 238 235 241 243 246 250 253 256 257 255 241 239 243 243 242 243 247 254 259 257 258 256 246 248 313 307 265 253 262 272 270 270 265 233 224 201 209 253 252 213 258 273 257 260 270 252 209 208 210 208 209
311 291 265 256 249 245 254 263 261 271 269 240 202 209 196 171 181 199 212 220 232 236 242 244 241 240 236 234 233 236 241 247 245 240 239 231 234 238 241 246 252 254 258 256 256 245 235 240 248 253 257 262 262 261 257 254 252 228 195 236 248 236 240 232 255 253 275 253 235 177 168 231 258 211 233 298 330 255 257 255 195 187 199 214 215
298 291 279 268 268 265 263 264 268 264 268 277 178 199 207 204 197 209 204 210 232 237 238 245 241 240 245 244 242 238 236 240 242 242 240 228 232 233 235 240 249 254 254 257 251 256 259 254 253 245 255 250 250 246 248 247 248 232 209 229 243 221 237 239 241 263 286 263 229 175 207 250 219 256 200 285 275 276 260 264 201 181 181 190 201